Location: Co�t-Milin
(48.0761°N, 3.3772°W)
Time: 10:01:56
(UTC+00:00)

Daily predictions for brighter satellites

Satellite Brightness Start Highest point End
(mag) Time Altitude Azimuth Time Altitude Azimuth Time Altitude Azimuth
STARLINK-1269 4.3 19:05:38 10° SSW 19:09:18 34° SE 19:12:59 10° ENE
Okean 1 Rocket 3.7 19:06:31 10° SSW 19:10:51 62° WNW 19:15:11 10° N
ERBS 2.7 19:07:53 10° WSW 19:11:14 66° NW 19:14:36 10° NE
STARLINK-1094 3.6 19:07:23 10° WNW 19:11:24 77° NNE 19:15:26 10° ESE
STARLINK-1073 4.4 19:08:36 10° WNW 19:12:35 44° N 19:16:34 10° E
Cosmos 1544 Rocket 4.3 19:08:48 10° SSE 19:12:41 31° E 19:16:35 10° NNE
Cosmos 1745 Rocket 4.0 19:06:21 10° N 19:12:42 74° E 19:18:56 10° SSE
STARLINK-1200 4.2 19:10:15 10° SSW 19:13:59 37° SE 19:17:43 10° ENE
Cosmos 2297 4.0 19:08:33 10° NNW 19:14:04 50° NE 19:19:36 10° SE
NOSS 0 Rocket 4.0 19:08:34 10° SSW 19:14:47 88° WNW 19:21:02 10° NNE
HJ-1C 3.4 19:11:36 10° SSE 19:14:56 86° ENE 19:18:19 10° NNW
STARLINK-1117 3.6 19:11:55 10° WNW 19:15:56 81° NNE 19:19:58 10° ESE
USA 234 3.8 19:10:31 10° ENE 19:16:27 36° SE 19:22:22 10° SSW
STARLINK-1121 4.4 19:13:36 10° WNW 19:17:36 45° N 19:21:36 10° E
Meteor 2-5 Rocket 3.7 19:12:21 10° N 19:18:04 86° E 19:23:39 10° SSE
STARLINK-1192 4.1 19:14:49 10° SSW 19:18:36 39° SE 19:22:24 10° ENE
STARLINK-1078 3.5 19:16:24 10° WNW 19:20:26 85° NNE 19:24:26 10° ESE
Cosmos 2237 Rocket 2.2 19:15:13 10° SSW 19:20:50 86° ESE 19:26:31 10° NNE
ADEOS Rocket 3.5 19:14:01 10° NNE 19:20:57 77° WNW 19:27:07 10° SSW
Cosmos 1805 3.2 19:17:15 10° S 19:21:10 79° E 19:25:05 10° NNE
STARLINK-1106 4.3 19:18:34 10° WNW 19:22:35 46° N 19:26:35 10° E
STARLINK-1244 4.0 19:19:32 10° SSW 19:23:22 42° SE 19:27:13 10° ENE
STARLINK-1201 3.1 19:20:30 10° SW 19:23:43 59° SSE 19:26:57 10° ENE
Cosmos 1302 Rocket 4.4 19:18:55 10° NNW 19:23:59 45° ENE 19:29:03 10° SE
STARLINK-1108 3.5 19:20:56 10° WNW 19:24:58 90° NNE 19:28:47 11° ESE
Cosmos 2278 Rocket 3.3 19:20:53 10° NW 19:26:18 47° WSW 19:31:42 10° S
STARLINK-1112 4.3 19:23:35 10° WNW 19:27:36 47° NNE 19:31:27 11° E
CZ-2C R/B 3.9 19:24:06 10° NE 19:27:40 18° E 19:31:12 10° SE
STARLINK-1138 3.9 19:24:10 10° SW 19:28:03 45° SE 19:31:56 10° ENE
Cosmos 1269 Rocket 4.2 19:23:20 10° S 19:28:23 48° ESE 19:33:27 10° NNE
STARLINK-1209 2.6 19:26:07 10° WSW 19:29:02 86° SSE 19:31:56 10° ENE
STARLINK-1066 3.3 19:26:16 10° WNW 19:29:23 57° SSW 19:32:18 11° SE
STARLINK-1071 3.6 19:25:26 10° WNW 19:29:29 86° SSW 19:33:08 12° ESE
STARLINK-1081 3.3 19:26:44 10° WNW 19:29:49 56° SSW 19:32:41 11° SE
STARLINK-1228 2.6 19:27:07 10° WSW 19:30:00 87° SSE 19:32:53 10° ENE
STARLINK-1070 3.3 19:27:12 10° WNW 19:30:16 55° SSW 19:33:06 12° SE
STARLINK-1124 3.6 19:26:20 10° WNW 19:30:30 85° SSW 19:34:14 13° ESE
STARLINK-1069 3.4 19:27:36 10° WNW 19:30:42 55° SSW 19:33:34 12° SE
STARLINK-1085 3.4 19:28:03 10° WNW 19:31:09 55° SSW 19:34:00 12° SE
STARLINK-1086 3.4 19:28:33 10° WNW 19:31:37 54° SSW 19:34:24 12° SE
STARLINK-1095 3.4 19:29:00 10° WNW 19:32:04 54° SSW 19:34:50 12° SE
Cosmos 1553 Rocket 4.3 19:26:08 10° SSW 19:32:11 73° W 19:38:18 10° N
STARLINK-1077 3.4 19:29:27 10° WNW 19:32:30 53° SSW 19:35:16 12° SE
STARLINK-1128 4.2 19:28:35 10° WNW 19:32:37 48° NNE 19:36:15 12° E
STARLINK-1143 3.8 19:28:54 10° SW 19:32:49 49° SE 19:36:44 10° ENE
STARLINK-1075 3.4 19:29:54 10° WNW 19:32:58 53° SSW 19:35:42 12° SE
STARLINK-1093 3.4 19:30:19 10° WNW 19:33:24 53° SSW 19:36:10 12° SE
Meteor 1-24 Rocket 3.6 19:27:49 10° N 19:33:26 85° ENE 19:38:48 10° SSE
SL-8 R/B 3.7 19:28:44 10° W 19:33:31 87° N 19:38:02 12° E
STARLINK-1074 3.5 19:30:46 10° WNW 19:33:51 52° SSW 19:36:36 12° SE
SeaSat 1 4.0 19:29:17 10° NNE 19:33:53 40° NW 19:38:27 10° WSW
STARLINK-1110 3.6 19:29:58 10° WNW 19:34:00 81° SSW 19:37:29 14° ESE
STARLINK-1087 3.5 19:31:15 10° WNW 19:34:19 51° SSW 19:37:00 12° SE
STARLINK-1088 3.5 19:31:43 10° WNW 19:34:46 51° SSW 19:37:26 13° SE
CZ-4 R/B 4.2 19:31:53 10° SW 19:34:50 20° W 19:37:46 10° NW
ARGOS 3.2 19:29:45 10° SSE 19:35:06 66° ENE 19:40:28 10° N
STARLINK-1115 3.5 19:32:08 10° WNW 19:35:13 51° SSW 19:37:55 13° SE
STARLINK-1076 3.5 19:32:34 10° WNW 19:35:39 50° SSW 19:38:20 13° SE
STARLINK-1092 3.5 19:33:02 10° WNW 19:36:07 50° SSW 19:38:47 13° SE
STARLINK-1080 3.5 19:33:31 10° WNW 19:36:33 49° SW 19:39:10 13° SE
STARLINK-1090 3.5 19:33:58 10° WNW 19:37:00 49° SW 19:39:36 13° SE
STARLINK-1089 3.5 19:34:26 10° WNW 19:37:27 48° SW 19:40:02 13° SE
STARLINK-1113 4.2 19:33:34 10° WNW 19:37:37 50° NNE 19:41:02 14° E
STARLINK-1107 3.6 19:34:52 10° WNW 19:37:54 48° SW 19:40:28 13° SE
MOS 1 4.3 19:33:47 10° SSE 19:39:25 77° ENE 19:45:05 10° NNW
Cosmos 1470 3.3 19:37:56 10° SSE 19:41:28 35° E 19:45:03 10° NNE
STARLINK-1119 4.1 19:38:32 10° WNW 19:42:37 51° NNE 19:45:48 15° E
STARLINK-1122 3.7 19:39:08 10° WNW 19:43:09 72° SSW 19:46:18 16° SE
STARLINK-1241 3.6 19:39:16 10° SW 19:43:13 57° SE 19:47:06 10° ENE
STARLINK-1233 2.8 19:40:19 10° WSW 19:43:27 85° SSE 19:46:21 12° ENE
STARLINK-1212 2.8 19:40:47 10° WSW 19:43:55 86° SE 19:46:46 12° ENE
STARLINK-1105 2.8 19:41:13 10° WSW 19:44:21 87° SSE 19:47:13 12° ENE
STARLINK-1206 2.8 19:41:42 10° WSW 19:44:50 87° SE 19:47:38 12° ENE
STARLINK-1247 2.8 19:42:09 10° WSW 19:45:16 88° SSE 19:48:03 12° ENE
STARLINK-1227 2.8 19:42:34 10° WSW 19:45:42 88° SSE 19:48:30 12° ENE
Cosmos 2315 Rocket 4.1 19:39:35 10° SSE 19:45:42 57° E 19:51:56 10° NNE
ATLAS CENTAUR R/B 4.2 19:43:49 10° NW 19:45:43 13° NNW 19:47:36 10° N
ISS -3.0 19:42:31 10° WNW 19:45:47 46° N 19:48:11 16° ENE
STARLINK-1218 2.8 19:43:03 10° WSW 19:46:10 89° SSE 19:48:55 13° ENE
SL-08 RB Rocket 3.8 19:41:49 10° SSE 19:46:14 58° ENE 19:50:44 10° N
STARLINK-1226 2.8 19:43:30 10° WSW 19:46:38 89° SE 19:49:23 13° ENE
STARLINK-1254 2.8 19:43:55 10° WSW 19:47:02 90° SW 19:49:48 13° ENE
SJ-6B 2.9 19:43:16 10° SSE 19:47:18 70° ENE 19:51:26 10° N
STARLINK-1215 2.8 19:44:25 10° WSW 19:47:32 89° N 19:50:14 13° ENE
STARLINK-1114 4.1 19:43:33 10° WNW 19:47:38 53° NNE 19:50:36 17° E
STARLINK-1126 3.7 19:43:46 10° WNW 19:47:47 68° SSW 19:50:44 17° SE
STARLINK-1239 3.5 19:43:49 10° SW 19:47:47 61° SSE 19:51:31 12° ENE
MetOp-A 4.4 19:42:47 10° SE 19:47:55 49° ENE 19:53:05 10° N
STARLINK-1231 2.8 19:44:51 10° WSW 19:47:58 89° NW 19:50:39 13° ENE
Resurs 1-3 4.2 19:44:43 13° SE 19:48:11 39° ENE 19:52:17 10° N
STARLINK-1232 2.8 19:45:45 10° WSW 19:48:52 88° NW 19:51:31 14° ENE
STARLINK-1217 2.8 19:46:12 10° WSW 19:49:20 87° NNW 19:51:58 14° ENE
Cosmos 1758 3.8 19:45:32 10° SSE 19:49:22 41° E 19:53:14 10° NNE
STARLINK-1208 2.8 19:46:37 10° WSW 19:49:45 87° NW 19:52:25 14° ENE
STARLINK-1229 2.8 19:47:06 10° WSW 19:50:13 86° NNW 19:52:49 14° ENE
STARLINK-1271 2.8 19:47:34 10° WSW 19:50:41 85° NNW 19:53:17 14° ENE
BREEZE-M DEB (TANK) 4.1 19:42:10 10° W 19:50:46 74° N 19:53:10 18° E
STARLINK-1270 2.8 19:48:01 10° WSW 19:51:08 85° NNW 19:53:42 14° ENE
Cosmos 304 Rocket 4.3 19:46:47 10° NNW 19:51:30 60° WSW 19:56:12 10° S
STARLINK-1154 2.8 19:48:27 10° WSW 19:51:34 84° NNW 19:54:07 14° ENE
STARLINK-1082 3.8 19:48:20 10° WNW 19:52:20 64° SSW 19:55:08 19° SE
STARLINK-1240 3.5 19:48:24 10° SW 19:52:22 66° SSE 19:55:55 13° ENE
STARLINK-1197 2.8 19:49:22 10° WSW 19:52:29 83° NNW 19:54:59 15° ENE
STARLINK-1130 (DARKSAT) 4.0 19:48:31 10° WNW 19:52:36 55° NNE 19:55:22 19° E
STARLINK-1189 2.9 19:49:49 10° WSW 19:52:56 83° NNW 19:55:26 15° ENE
CZ-2C R/B 3.0 19:48:41 10° SSE 19:53:46 84° WSW 19:58:39 10° NNW
STARLINK-1187 3.0 19:50:40 10° WSW 19:53:47 75° NNW 19:56:20 15° ENE
STARLINK-1188 2.9 19:50:43 10° WSW 19:53:50 82° NNW 19:56:17 15° ENE
STARLINK-1198 2.9 19:50:57 10° WSW 19:54:04 81° NNW 19:56:31 15° ENE
Cosmos 2369 Rocket 3.0 19:49:05 10° NNW 19:54:22 37° NE 19:57:50 19° ESE
STARLINK-1235 3.1 19:51:22 10° WSW 19:54:30 68° NNW 19:57:05 14° ENE
Abrixas rocket 4.1 19:53:22 10° S 19:54:14 13° SSE 19:54:14 13° SSE
Resurs 01 Rocket 2.4 19:53:04 19° ESE 19:55:35 33° ENE 19:59:34 10° N
STARLINK-1199 2.9 19:52:39 10° WSW 19:55:47 79° NNW 19:58:13 16° ENE
FREGAT/IRIS 3.1 19:53:30 10° S 19:56:11 53° W 19:58:52 10° NNW
STARLINK-1191 2.9 19:53:07 10° WSW 19:56:15 79° NNW 19:58:39 16° ENE
STARLINK-67 3.4 19:53:46 10° W 19:56:16 44° NNW 19:58:04 16° NE
STARLINK-1210 2.9 19:53:33 10° WSW 19:56:41 78° NNW 19:59:05 16° ENE
STARLINK-1100 3.9 19:52:54 10° WNW 19:56:54 60° SSW 19:59:31 20° SE
STARLINK-1216 3.5 19:53:00 10° SW 19:57:00 70° SSE 20:00:22 14° ENE
STARLINK-1221 2.9 19:54:01 10° WSW 19:57:09 78° NNW 19:59:33 16° ENE
STARLINK-1084 4.0 19:53:29 10° WNW 19:57:36 57° NNE 20:00:09 21° E
STARLINK-1219 2.9 19:54:28 10° WSW 19:57:36 77° NNW 19:59:58 16° ENE
Cosmos 1733 3.8 19:54:17 10° SSW 19:58:00 60° WNW 20:01:46 10° N
STARLINK-1222 3.0 19:54:54 10° WSW 19:58:03 77° NNW 20:00:22 17° ENE
STARLINK-1211 3.0 19:55:22 10° WSW 19:58:30 76° NNW 20:00:48 17° ENE
STARLINK-1214 3.0 19:55:49 10° WSW 19:58:57 76° NNW 20:01:15 17° ENE
STARLINK-1245 3.0 19:56:18 10° WSW 19:59:26 75° NNW 20:01:40 17° ENE
STARLINK-1238 3.0 19:56:44 10° WSW 19:59:51 75° NNW 20:02:08 17° ENE
Meteor 1-22 Rocket 4.3 19:54:54 10° SSW 20:00:11 74° WNW 20:05:30 10° N
STARLINK-1205 3.0 19:57:41 10° WSW 20:00:47 74° NNW 20:02:59 18° ENE
STARLINK-1204 3.0 19:58:07 10° WSW 20:01:13 73° NNW 20:03:23 18° ENE
STARLINK-1083 4.0 19:57:31 10° WNW 20:01:29 56° SW 20:03:57 21° SE
STARLINK-1237 3.4 19:57:38 10° SW 20:01:39 75° SSE 20:04:52 15° ENE
Cosmos 494 Rocket 4.4 19:57:26 10° SSW 20:02:33 68° WNW 20:07:45 10° NNE
STARLINK-1098 3.9 19:58:28 10° WNW 20:02:35 60° NNE 20:04:55 24° E
SL-14 R/B 3.7 20:01:27 10° NNW 20:05:29 65° W 20:09:28 10° S
Cosmos 1726 3.5 20:06:30 22° ENE 20:06:30 22° ENE 20:08:59 10° NE
SPOT 3 Rocket 3.5 20:00:52 10° SSE 20:06:04 75° ENE 20:11:18 10° NNW
STARLINK-1125 4.1 20:02:09 10° WNW 20:06:06 52° SW 20:08:23 23° SSE
STARLINK-1202 3.4 20:02:15 10° WSW 20:06:16 79° SSE 20:09:19 17° ENE
Meteor 1-21 Rocket 4.3 20:02:06 10° N 20:07:36 54° ENE 20:11:31 19° SE
STARLINK-1123 3.8 20:03:28 10° WNW 20:07:36 62° NNE 20:09:44 27° E
Cosmos 1709 Rocket 4.1 20:04:06 10° NNW 20:10:19 77° W 20:16:27 10° S
STARLINK-1109 4.2 20:06:28 10° WNW 20:10:24 49° SW 20:12:32 24° SSE
CZ-4C R/B 4.5 20:05:54 10° WNW 20:10:28 23° NNW 20:15:40 10° NE
IRIDIUM 103 4.4 20:05:25 10° N 20:10:35 56° E 20:14:45 15° SSE
STARLINK-1246 3.5 20:07:19 10° WSW 20:11:23 85° SSE 20:14:18 18° ENE
STARLINK-1097 3.8 20:08:26 10° WNW 20:12:34 65° NNE 20:14:29 30° E
MOS 1 Rocket 3.8 20:07:58 10° NNE 20:12:58 45° E 20:18:08 10° S
Meteor 2-15 4.3 20:07:06 10° S 20:13:08 79° E 20:19:13 10° NNE
STARLINK-1091 4.3 20:11:10 10° WNW 20:15:03 45° SW 20:17:02 25° SSE
Cosmos 292 Rocket 4.0 20:12:19 10° NNW 20:17:00 52° ENE 20:19:06 30° ESE
STARLINK-1099 3.7 20:13:25 10° WNW 20:17:34 69° NNE 20:19:17 33° E
Cosmos 1943 4.4 20:19:28 22° E 20:19:28 22° E 20:22:51 10° NE
Cosmos 1943 Rocket 2.2 20:14:19 10° NNW 20:19:50 66° ENE 20:22:51 27° SE
STARLINK-1224 3.5 20:16:12 10° WSW 20:20:14 87° NNW 20:22:45 22° ENE
STARLINK-1104 3.6 20:18:25 10° WNW 20:22:34 72° NNE 20:24:04 37° E
Cosmos 2074 Rocket 4.1 20:16:36 10° N 20:22:47 58° ENE 20:26:45 23° SSE
STARLINK-1225 3.5 20:20:55 10° WSW 20:24:57 82° NNW 20:27:16 24° ENE
USA 186 4.0 20:22:58 10° SSW 20:25:58 27° W 20:28:56 10° NW
STARLINK-1203 3.6 20:22:36 10° WSW 20:26:33 76° NNW 20:28:44 25° ENE
STARLINK-1144 3.6 20:23:22 10° WNW 20:27:32 76° NNE 20:28:50 42° E
IRIDIUM 106 4.2 20:23:39 10° N 20:28:54 80° E 20:32:57 17° S
STARLINK-1234 3.8 20:26:07 10° W 20:29:00 42° NNW 20:29:59 30° NNE
Cosmos 1437 3.9 20:26:32 10° N 20:28:32 28° NE 20:28:32 28° NE
STARLINK-1230 3.6 20:25:33 10° WSW 20:29:35 78° NNW 20:31:44 27° ENE
Cosmos 1626 Rocket 4.2 20:25:47 10° NNW 20:30:06 56° W 20:34:22 10° S
Cosmos 1626 3.9 20:27:01 10° NNW 20:30:22 32° W 20:33:41 10° SSW
Cosmos 1953 2.2 20:29:29 31° SSE 20:31:14 64° E 20:35:11 10° NNE
Meteor 2-10 4.2 20:28:33 21° SSE 20:31:56 51° E 20:37:17 10° NNE
NOSS 3-3 (A) 4.3 20:26:59 10° S 20:32:16 37° ESE 20:38:07 10° NE
NOSS 3-3 (C) 4.3 20:27:06 10° S 20:32:22 36° ESE 20:38:12 10° NE
STARLINK-1103 3.6 20:28:21 10° WNW 20:32:30 80° NNE 20:33:37 47° ESE
SPOT 1/Viking Rocket 4.5 20:32:06 28° E 20:33:09 31° ENE 20:37:41 10° N
Cosmos 2084 Rocket 3.5 20:29:31 10° NW 20:34:00 74° NE 20:35:19 45° ESE
STARLINK-1243 3.6 20:30:16 10° WSW 20:34:18 75° NNW 20:36:16 29° ENE
SL-16 R/B 2.5 20:28:59 10° SW 20:34:37 70° WNW 20:40:18 10° NNE
Spot 2 Rocket 3.9 20:33:06 35° ESE 20:34:37 45° ENE 20:39:30 10° N
STARLINK-1101 3.5 20:33:20 10° WNW 20:37:30 84° NNE 20:38:25 54° ESE
Cosmos 1602 Rocket 4.1 20:33:17 10° NNW 20:37:43 60° W 20:41:06 16° S
STARLINK-1236 3.7 20:34:57 10° WSW 20:38:59 71° NNW 20:40:46 32° NE
Aureole 3 3.6 20:38:26 14° SSW 20:41:50 82° W 20:46:57 10° N
IGS 5A 4.4 20:42:14 32° ENE 20:42:14 32° ENE 20:45:43 10° N
STARLINK-1102 3.5 20:38:19 10° WNW 20:42:28 89° NNE 20:43:11 60° ESE
Aureole 2 Rocket 2.3 20:39:14 10° NNW 20:42:43 73° ENE 20:42:43 73° ENE
DMSP B5D2-2 4.0 20:41:00 10° NNE 20:46:14 86° WNW 20:51:27 10° SSW
H-2A R/B 4.0 20:42:04 10° SSW 20:46:37 28° W 20:51:05 10° NW
STARLINK-1111 3.4 20:43:17 10° WNW 20:47:26 86° SSW 20:47:58 68° SE
STARLINK-1269 3.9 20:44:25 10° WSW 20:48:25 65° NNW 20:49:49 38° NE
Terra 3.4 20:49:37 20° NE 20:49:37 20° NE 20:52:49 10° NNE
STARLINK-1073 3.4 20:48:16 10° WNW 20:52:25 82° SSW 20:52:45 74° SSE
STARLINK-1200 3.9 20:49:08 10° WSW 20:53:09 62° NNW 20:54:21 41° NE
Cosmos 1703 3.5 20:49:41 10° N 20:53:09 53° NE 20:53:09 53° NE
Cosmos 1726 Rocket 4.2 20:55:08 39° ENE 20:55:08 39° ENE 20:58:25 10° NNE
ATLAS 2AS CENTAUR R/B 3.4 20:47:11 10° NW 20:54:40 48° NE 20:57:42 32° E
Cosmos 1603 3.7 20:53:26 28° S 20:56:16 56° ESE 21:01:46 10° NE
Meteor 1-16 Rocket 4.0 20:54:16 35° S 20:56:33 71° E 21:02:00 10° NNE
Cosmos 1825 Rocket 3.4 20:52:41 10° N 20:57:09 87° ENE 20:57:49 64° SSE
STARLINK-1121 3.5 20:53:16 10° WNW 20:57:24 77° SSW 20:57:32 76° S
STARLINK-1192 4.0 20:53:48 10° W 20:57:49 59° NNW 20:58:49 43° NE
USA 234 3.3 20:53:19 10° NE 20:59:53 82° NNW 21:06:26 10° WSW
STARLINK-1201 4.1 20:56:58 10° W 21:00:05 40° NNW 21:00:05 40° NNW
Cosmos 2327 Rocket 4.4 20:54:43 10° N 21:01:00 77° E 21:03:23 41° SSE
STARLINK-1106 3.6 20:58:14 10° WNW 21:02:18 72° SW 21:02:18 72° SW
STARLINK-1244 4.1 20:58:38 10° W 21:02:37 57° NNW 21:03:26 46° NNE
MetOp-B 4.0 21:01:14 47° SSE 21:02:52 87° ENE 21:08:16 10° NNW
Cosmos 1758 Rocket 3.8 21:02:05 10° NNW 21:06:25 64° W 21:07:20 50° SSW
STARLINK-1138 4.1 21:03:21 10° W 21:07:20 55° NNW 21:07:58 49° NNE
STARLINK-1112 3.8 21:03:14 10° WNW 21:07:06 65° WSW 21:07:06 65° WSW
CZ-2C R/B 2.8 21:03:18 10° N 21:08:28 67° WNW 21:13:34 10° SSW
Cosmos 1992 Rocket 4.2 21:04:03 10° NNW 21:09:14 64° WSW 21:10:43 44° S
COSMOS 2455 4.0 21:04:26 10° NNW 21:09:41 29° NE 21:11:09 27° ENE
Meteor 1-11 4.2 21:05:21 10° N 21:11:10 70° ENE 21:12:06 59° SE
STARLINK-1143 4.2 21:08:10 10° W 21:12:09 53° NNW 21:12:34 50° N
STARLINK-1128 4.0 21:08:14 10° WNW 21:11:54 58° WSW 21:11:54 58° WSW
Cosmos 1953 Rocket 3.5 21:08:20 10° N 21:12:43 85° NE 21:12:43 85° NE
Cosmos 2184 Rocket 4.3 21:07:18 10° NNW 21:13:36 67° W 21:17:03 28° SSW
Cosmos 1295 Rocket 4.4 21:09:21 10° N 21:15:37 69° E 21:16:48 56° SE
SL-8 R/B 3.6 21:11:21 10° W 21:16:00 78° SW 21:16:00 78° SW
Cosmos 2251 Rocket 3.7 21:11:54 10° SSW 21:17:15 75° WNW 21:22:41 10° NNE
STARLINK-1113 4.2 21:13:13 10° WNW 21:16:41 51° WSW 21:16:41 51° WSW
Meteor 2-17 Rocket 4.3 21:13:16 10° N 21:19:26 88° E 21:21:00 53° S
Cosmos 1606 Rocket 3.6 21:20:20 77° WNW 21:20:20 77° WNW 21:24:44 10° N
Cosmos 1656 Rocket 3.5 21:16:26 10° NNW 21:22:09 74° ENE 21:22:37 70° ESE
STARLINK-1119 4.4 21:18:12 10° WNW 21:21:27 45° WSW 21:21:27 45° WSW
STARLINK-1241 4.3 21:18:34 10° W 21:22:24 49° NNW 21:22:24 49° NNW
ISS -1.8 21:19:23 10° WNW 21:21:09 28° WNW 21:21:09 28° WNW
STARLINK-1239 4.5 21:23:11 10° W 21:26:49 47° NNW 21:26:49 47° NNW
USA 245 4.0 21:27:48 65° SSW 21:28:21 72° WSW 21:34:08 10° NNW
ERS-1 Rocket 3.0 21:28:47 64° NE 21:28:47 64° NE 21:33:26 10° N
BREEZE-M DEB (TANK) 4.3 21:25:31 10° WSW 21:26:52 19° W 21:26:52 19° W
Resurs 01 Rocket 3.3 21:30:38 23° SW 21:32:06 29° W 21:35:56 10° NW
SPOT 5 3.5 21:35:18 43° NNE 21:35:18 43° NNE 21:38:25 10° N
Cosmos 2154 Rocket 4.2 21:28:11 10° NNW 21:34:32 71° W 21:36:21 48° SSW
Cosmos 2369 Rocket 3.0 21:33:07 10° NW 21:38:29 44° WSW 21:39:39 39° SW
Cosmos 1726 4.0 21:40:56 28° WNW 21:41:06 28° WNW 21:44:24 10° NNW
Landsat 7 4.2 21:45:26 59° W 21:45:26 59° W 21:49:50 10° NNW
Cosmos 967 Rocket 4.5 21:40:07 10° SW 21:46:35 85° NW 21:53:07 10° NE
Cosmos 2228 4.1 21:47:49 42° WNW 21:47:49 42° WNW 21:51:41 10° N
Cosmos 962 Rocket 4.3 21:44:19 10° N 21:50:34 84° W 21:50:55 79° SSW
SL-8 Rocket 3.9 21:50:32 10° N 21:56:35 75° NE 21:56:35 75° NE
Cosmos 2058 Rocket 4.4 22:01:23 39° NNW 22:01:23 39° NNW 22:04:26 10° N
Cosmos 1943 3.5 22:01:06 55° WSW 22:02:02 63° WNW 22:07:42 10° NNE
Cosmos 1943 Rocket 4.0 21:58:57 10° NW 22:03:04 22° W 22:04:24 20° WSW
Cosmos 2366 rocket 4.1 21:57:55 10° N 22:03:18 63° NE 22:03:18 63° NE
Mayak 1.6 22:06:49 10° NNE 22:06:55 11° NNE 22:06:55 11° NNE
SPOT 1/Viking Rocket 4.5 22:12:43 42° W 22:12:43 42° W 22:17:23 10° NNW
NOSS 3-4 (A) 3.7 22:06:14 10° NW 22:13:13 86° SW 22:13:24 84° SSW
NOSS 3-4 (C) 3.7 22:06:20 10° NW 22:13:19 86° SW 22:13:29 85° S
Cosmos 1697 Rocket 4.5 22:21:58 10° N 22:26:03 22° NE 22:26:03 22° NE
Terra 3.2 22:28:29 36° NW 22:28:29 36° NW 22:31:25 10° NNW
USA 234 4.1 22:36:22 10° ENE 22:42:31 45° NNW 22:48:40 10° W
ATLAS 2AS CENTAUR R/B 3.2 22:38:30 10° NW 22:45:08 53° W 22:45:08 53° W
Cosmos 1980 Rocket 4.2 22:47:09 10° N 22:50:54 20° NE 22:50:54 20° NE
COSMOS 2455 3.7 22:50:09 10° NW 22:54:18 45° NW 22:54:18 45° NW
Mayak 1.8 23:42:56 10° NNW 23:43:29 13° NNW 23:43:29 13° NNW
CZ-4C R/B 3.6 23:45:01 10° NW 23:51:35 46° NE 23:51:42 46° NE
